Location: Buch
(49.7331°N, 12.1098°E)
Time: 14:10:20
(UTC+00:00)

Landsat 7 - Pass Details

Date: 05 October 2021
Orbit: 701 x 703 km, 98.0° (Epoch: 22 October)

Event Time Altitude Azimuth Distance (km) Brightness Sun altitude
Exits shadow 19:09:05 41° 36° (NE) 1,017 4.5 -24.3°
Drops below altitude 10° 19:12:44 10° 356° (N) 2,181 6.7 -24.8°
Sets 19:15:04 0° 351° (N) 3,103 7.6 -25.2°
